King Salmon, AK

12:21 PM AKDT on April 19, 2018 (GMT -0800)
King Salmon

Weather History for PAKN - April, 2013

Change the Weather History Date:

Tuesday, April 30, 2013

  Actual Average Record
Temperature  
Mean Temperature 37 °F 39 °F  
Max Temperature 48 °F 48 °F 69 °F (2005)
Min Temperature 25 °F 30 °F 17 °F (1952)
Degree Days  
Heating Degree Days 28 26  
Month to date heating degree days 1092 940  
Since 1 July heating degree days 10296 9825  
Cooling Degree Days 0 0  
Month to date cooling degree days 0 0  
Year to date cooling degree days 0 0  
Moisture  
Dew Point 26 °F    
Average Humidity 0    
Maximum Humidity 0    
Minimum Humidity 0    
Precipitation  
Precipitation 0.00 in 0.04 in 0.32 in (1930)
Month to date precipitation 0.20 0.97  
Year to date precipitation 6.03 3.45  
Snow  
Snow 0.00 in 0.10 in - ()
Month to date snowfall 0.8 3.9  
Since 1 July snowfall 74.5 45.8  
Snow Depth 0.00 in    
Sea Level Pressure  
Sea Level Pressure 29.91 in    
Wind  
Wind Speed 8 mph (NNE)    
Max Wind Speed 20 mph    
Max Gust Speed 24 mph    
Visibility 10 miles    
Events      
T = Trace of Precipitation, MM = Missing Value Source: NWS Daily Summary

Daily Weather History Graph

Daily Weather History Graph

Search for Another Location

Airport or City:

Trip Planner

Search our weather history database for the weather conditions in past years. The results will help you decide how hot, cold, wet, or windy it might be!

Date:

Astronomy

Apr. 30, 2013 Rise Set
Actual Time 6:32 AM AKDT 10:16 PM AKDT
Civil Twilight 5:42 AM AKDT 11:06 PM AKDT
Nautical Twilight 4:30 AM AKDT 12:20 AM AKDT
Astronomical Twilight 2:56 AM AKDT 1:51 AM AKDT
Moon 3:03 AM AKDT (4/30) 11:01 AM AKDT (4/30)
Length of Visible Light 17h 24m
Length of Day
15h 44m
Waning Gibbous, 68% of the Moon is Illuminated
Apr 30
Waning Gibbous
May 2
Last Quarter
May 9
New
May 17
First Quarter
May 24
Full

Hourly Weather History & Observations

Time (AKDT) Temp. Windchill Dew Point Humidity Pressure Visibility Wind Dir Wind Speed Gust Speed Precip Events Conditions
12:54 AM 27.0 °F 23.0 °F 26.1 °F 96% 30.12 in 10.0 mi SSW 3.5 mph - N/A   Clear
1:54 AM 25.0 °F 19.3 °F 24.1 °F 96% 30.11 in 10.0 mi SW 4.6 mph - N/A   Clear
2:02 AM 24.8 °F 20.5 °F 24.8 °F 100% 30.10 in 10.0 mi SW 3.5 mph - N/A   Scattered Clouds
2:11 AM 24.8 °F 20.5 °F 24.8 °F 100% 30.10 in 10.0 mi SW 3.5 mph - N/A   Mostly Cloudy
2:54 AM 27.0 °F 21.6 °F 26.1 °F 96% 30.09 in 10.0 mi SSW 4.6 mph - N/A   Overcast
3:54 AM 28.0 °F 22.8 °F 27.0 °F 96% 30.07 in 10.0 mi SSW 4.6 mph - N/A   Overcast
4:54 AM 28.0 °F 21.7 °F 26.1 °F 92% 30.06 in 10.0 mi SW 5.8 mph - N/A   Overcast
5:54 AM 28.0 °F - 26.1 °F 92% 30.04 in 10.0 mi Calm Calm - N/A   Overcast
6:54 AM 28.0 °F - 26.1 °F 92% 30.02 in 10.0 mi Calm Calm - N/A   Overcast
7:38 AM 28.4 °F 24.6 °F 26.6 °F 93% 30.00 in 10.0 mi East 3.5 mph - N/A   Overcast
7:54 AM 28.9 °F - 25.0 °F 85% 30.01 in 10.0 mi Calm Calm - N/A   Overcast
8:54 AM 30.0 °F 26.5 °F 26.1 °F 85% 29.99 in 10.0 mi East 3.5 mph - N/A   Overcast
9:54 AM 30.9 °F - 25.0 °F 79% 29.97 in 10.0 mi Calm Calm - N/A   Overcast
10:54 AM 33.1 °F - 26.1 °F 75% 29.96 in 10.0 mi Calm Calm - N/A   Mostly Cloudy
11:07 AM 33.8 °F 29.6 °F 26.6 °F 75% 29.94 in 10.0 mi NE 4.6 mph - N/A   Mostly Cloudy
11:54 AM 35.1 °F 31.0 °F 27.0 °F 72% 29.94 in 10.0 mi Variable 4.6 mph - N/A   Mostly Cloudy
12:31 PM 37.4 °F 31.4 °F 26.6 °F 65% 29.92 in 10.0 mi North 8.1 mph - N/A   Scattered Clouds
12:54 PM 37.9 °F 32.1 °F 26.1 °F 62% 29.92 in 10.0 mi NNE 8.1 mph - N/A   Scattered Clouds
1:54 PM 43.0 °F 39.5 °F 28.0 °F 56% 29.89 in 10.0 mi Variable 5.8 mph 16.1 mph N/A   Scattered Clouds
2:54 PM 45.0 °F 39.3 °F 27.0 °F 49% 29.85 in 10.0 mi NNE 11.5 mph - N/A   Partly Cloudy
3:54 PM 46.9 °F - 27.0 °F 46% 29.83 in 10.0 mi North 15.0 mph 19.6 mph N/A   Partly Cloudy
4:54 PM 46.9 °F - 24.1 °F 41% 29.79 in 10.0 mi NNE 12.7 mph 21.9 mph N/A   Partly Cloudy
5:54 PM 46.9 °F - 25.0 °F 42% 29.76 in 10.0 mi NNE 15.0 mph 21.9 mph N/A   Partly Cloudy
6:54 PM 46.0 °F 39.3 °F 25.0 °F 44% 29.74 in 10.0 mi NNE 16.1 mph - N/A   Partly Cloudy
7:54 PM 44.1 °F 37.1 °F 25.0 °F 47% 29.72 in 10.0 mi NNE 15.0 mph - N/A   Partly Cloudy
8:54 PM 42.1 °F 34.2 °F 25.0 °F 51% 29.70 in 10.0 mi NNE 16.1 mph - N/A   Clear
9:54 PM 37.9 °F 30.5 °F 24.1 °F 57% 29.68 in 10.0 mi NNE 11.5 mph - N/A   Clear
10:54 PM 34.0 °F 26.0 °F 24.1 °F 67% 29.66 in 10.0 mi NNE 10.4 mph - N/A   Clear
11:54 PM 30.9 °F 22.8 °F 24.1 °F 76% 29.65 in 10.0 mi North 9.2 mph - N/A   Clear